When you browse on this site, cookies collect data to enhance your experience and personalize the content and advertising you see.
Visit our Privacy Policy to learn more. By continuing to use the site, you agree to this use of cookies and data.
  • In Germany
  • List of Countries
  • For 7 days
  • Water Temperature
  • Satellite Maps
  • Weather Map
  • Weather Widgets
  • user-avatar
    Login

    Hourly Weather Melbourne

    Today, 18 November, Sunday

    Time Temperature Precipitation Wind Pressure Humidity
    00:00 +10°C° 0 mm 3 mps 766 mmHg 89%
    01:00 +10°C° 0 mm 2 mps 765 mmHg 93%
    02:00 +9°C° 0 mm 2 mps 765 mmHg 93%
    03:00 +9°C° 0 mm 2 mps 765 mmHg 94%
    04:00 +9°C° 0 mm 2 mps 765 mmHg 95%
    05:00 +12°C° 0 mm 1 mps 765 mmHg 87%
    06:00 +13°C° 0 mm 1 mps 765 mmHg 79%
    07:00 +15°C° 0 mm 1 mps 765 mmHg 71%
    08:00 +19°C° 0 mm 1 mps 765 mmHg 63%
    09:00 +21°C° 0 mm 1 mps 765 mmHg 55%
    10:00 +24°C° 0 mm 1 mps 765 mmHg 45%
    11:00 +25°C° 0 mm 1 mps 764 mmHg 42%
    12:00 +27°C° 0 mm 2 mps 764 mmHg 39%
    13:00 +28°C° 0 mm 2 mps 763 mmHg 36%
    14:00 +28°C° 0 mm 2 mps 763 mmHg 36%
    15:00 +28°C° 0 mm 2 mps 762 mmHg 36%
    16:00 +27°C° 0 mm 4 mps 761 mmHg 38%
    17:00 +25°C° 0 mm 4 mps 762 mmHg 44%
    18:00 +24°C° 0 mm 3 mps 762 mmHg 49%
    19:00 +21°C° 0 mm 2 mps 762 mmHg 55%
    20:00 +19°C° 0 mm 2 mps 762 mmHg 58%
    21:00 +18°C° 0 mm 2 mps 762 mmHg 62%
    22:00 +17°C° 0 mm 2 mps 762 mmHg 61%
    23:00 +17°C° 0 mm 2 mps 761 mmHg 63%

    Tomorrow, 19 November, Monday

    Time Temperature Precipitation Wind Pressure Humidity
    00:00 +16°C° 0 mm 2 mps 761 mmHg 64%
    01:00 +16°C° 0 mm 1 mps 761 mmHg 65%
    02:00 +16°C° 0 mm 2 mps 761 mmHg 65%
    03:00 +16°C° 0 mm 3 mps 761 mmHg 64%
    04:00 +16°C° 0 mm 3 mps 761 mmHg 64%
    05:00 +17°C° 0 mm 4 mps 761 mmHg 62%
    06:00 +17°C° 0 mm 5 mps 761 mmHg 61%
    07:00 +19°C° 0 mm 6 mps 761 mmHg 60%
    08:00 +21°C° 0 mm 5 mps 761 mmHg 54%
    09:00 +23°C° 0 mm 5 mps 761 mmHg 48%
    10:00 +26°C° 0 mm 5 mps 761 mmHg 43%
    11:00 +28°C° 0 mm 5 mps 760 mmHg 39%
    12:00 +29°C° 0 mm 5 mps 759 mmHg 36%
    13:00 +30°C° 0 mm 4 mps 758 mmHg 33%
    14:00 +30°C° 0 mm 4 mps 758 mmHg 33%
    15:00 +32°C° 0 mm 4 mps 757 mmHg 33%
    16:00 +32°C° 0 mm 4 mps 756 mmHg 32%
    17:00 +29°C° 0 mm 4 mps 756 mmHg 38%
    18:00 +27°C° 0 mm 3 mps 756 mmHg 43%
    19:00 +26°C° 0 mm 3 mps 756 mmHg 49%
    20:00 +25°C° 0 mm 3 mps 756 mmHg 48%
    21:00 +24°C° 0 mm 3 mps 756 mmHg 48%
    22:00 +23°C° 0 mm 4 mps 756 mmHg 47%
    23:00 +22°C° 0 mm 4 mps 755 mmHg 46%

    Day after tomorrow, 20 November, Tuesday

    Time Temperature Precipitation Wind Pressure Humidity
    00:00 +22°C° 0 mm 4 mps 755 mmHg 45%
    01:00 +22°C° 0 mm 4 mps 754 mmHg 44%
    02:00 +22°C° 0 mm 5 mps 754 mmHg 43%
    03:00 +23°C° 0 mm 5 mps 754 mmHg 42%
    04:00 +23°C° 0 mm 6 mps 753 mmHg 42%
    05:00 +23°C° 0 mm 6 mps 754 mmHg 43%
    06:00 +23°C° 0 mm 6 mps 754 mmHg 45%
    07:00 +23°C° 0 mm 7 mps 754 mmHg 47%
    08:00 +23°C° 0 mm 7 mps 754 mmHg 51%
    09:00 +24°C° 0 mm 7 mps 753 mmHg 55%
    10:00 +24°C° 0 mm 7 mps 753 mmHg 59%
    11:00 +25°C° 0.3 mm 5 mps 753 mmHg 63%
    12:00 +25°C° 0.3 mm 4 mps 752 mmHg 67%
    13:00 +25°C° 0.3 mm 3 mps 752 mmHg 72%
    14:00 +25°C° 0.2 mm 3 mps 751 mmHg 70%
    15:00 +26°C° 0.2 mm 3 mps 750 mmHg 68%
    16:00 +26°C° 0.2 mm 3 mps 749 mmHg 67%
    17:00 +24°C° 2.5 mm 3 mps 749 mmHg 76%
    18:00 +23°C° 2.5 mm 2 mps 749 mmHg 85%
    19:00 +20°C° 2.5 mm 2 mps 749 mmHg 94%
    20:00 +19°C° 0.8 mm 2 mps 749 mmHg 95%
    21:00 +19°C° 0.8 mm 3 mps 749 mmHg 96%
    22:00 +19°C° 0.8 mm 3 mps 749 mmHg 96%
    23:00 +18°C° 0.3 mm 3 mps 749 mmHg 96%

    21 November, Wednesday

    Time Temperature Precipitation Wind Pressure Humidity
    00:00 +17°C° 0.3 mm 4 mps 749 mmHg 95%
    01:00 +15°C° 0.3 mm 4 mps 749 mmHg 94%
    02:00 +14°C° 0 mm 4 mps 750 mmHg 94%
    03:00 +13°C° 0 mm 3 mps 750 mmHg 94%
    04:00 +12°C° 0 mm 3 mps 750 mmHg 93%
    05:00 +12°C° 0 mm 3 mps 750 mmHg 90%
    06:00 +14°C° 0 mm 2 mps 750 mmHg 87%
    07:00 +14°C° 0 mm 2 mps 751 mmHg 84%
    08:00 +16°C° 0 mm 2 mps 750 mmHg 71%
    09:00 +18°C° 0 mm 2 mps 750 mmHg 59%
    10:00 +22°C° 0 mm 1 mps 750 mmHg 47%
    11:00 +23°C° 0 mm 2 mps 749 mmHg 43%
    12:00 +24°C° 0 mm 2 mps 748 mmHg 39%
    13:00 +25°C° 0 mm 2 mps 748 mmHg 35%
    14:00 +24°C° 0 mm 3 mps 747 mmHg 38%
    15:00 +22°C° 0 mm 3 mps 747 mmHg 41%
    16:00 +21°C° 0 mm 3 mps 746 mmHg 44%
    17:00 +20°C° 0 mm 3 mps 746 mmHg 50%
    18:00 +19°C° 0 mm 2 mps 746 mmHg 57%
    19:00 +17°C° 0 mm 2 mps 746 mmHg 63%
    20:00 +16°C° 1.1 mm 2 mps 746 mmHg 72%
    21:00 +15°C° 1.1 mm 2 mps 746 mmHg 82%
    22:00 +13°C° 1.1 mm 2 mps 746 mmHg 91%
    23:00 +12°C° 1.5 mm 3 mps 746 mmHg 92%

    22 November, Thursday

    Time Temperature Precipitation Wind Pressure Humidity
    00:00 +11°C° 1.5 mm 4 mps 745 mmHg 93%
    01:00 +10°C° 1.5 mm 4 mps 745 mmHg 94%
    02:00 +10°C° 0.6 mm 4 mps 745 mmHg 93%
    03:00 +8°C° 0.6 mm 4 mps 745 mmHg 93%
    04:00 +8°C° 0.6 mm 4 mps 744 mmHg 92%
    05:00 +8°C° 0.1 mm 4 mps 745 mmHg 91%
    06:00 +9°C° 0.1 mm 5 mps 745 mmHg 89%
    07:00 +9°C° 0.1 mm 5 mps 745 mmHg 88%
    08:00 +10°C° 0.2 mm 5 mps 745 mmHg 80%
    09:00 +12°C° 0.2 mm 5 mps 745 mmHg 72%
    10:00 +14°C° 0.2 mm 5 mps 745 mmHg 64%
    11:00 +14°C° 0.3 mm 5 mps 745 mmHg 66%
    12:00 +14°C° 0.3 mm 5 mps 745 mmHg 67%
    13:00 +14°C° 0.3 mm 5 mps 745 mmHg 69%
    14:00 +14°C° 0.4 mm 5 mps 745 mmHg 74%
    15:00 +13°C° 0.4 mm 6 mps 746 mmHg 80%
    16:00 +13°C° 0.4 mm 6 mps 747 mmHg 86%
    17:00 +11°C° 0.2 mm 6 mps 748 mmHg 84%
    18:00 +11°C° 0.2 mm 6 mps 748 mmHg 83%
    19:00 +11°C° 0.2 mm 6 mps 749 mmHg 82%
    20:00 +11°C° 0.1 mm 6 mps 750 mmHg 82%
    21:00 +10°C° 0.1 mm 6 mps 751 mmHg 82%
    22:00 +10°C° 0.1 mm 6 mps 752 mmHg 82%
    23:00 +10°C° 0.1 mm 6 mps 752 mmHg 82%

    23 November, Friday

    Time Temperature Precipitation Wind Pressure Humidity
    00:00 +9°C° 0.1 mm 6 mps 752 mmHg 82%
    01:00 +9°C° 0.1 mm 6 mps 752 mmHg 82%
    02:00 +9°C° 0 mm 5 mps 752 mmHg 83%
    03:00 +8°C° 0 mm 5 mps 752 mmHg 84%
    04:00 +8°C° 0 mm 5 mps 752 mmHg 85%
    05:00 +8°C° 0 mm 5 mps 752 mmHg 82%
    06:00 +9°C° 0 mm 6 mps 752 mmHg 78%
    07:00 +10°C° 0 mm 6 mps 752 mmHg 75%
    08:00 +10°C° 0.1 mm 6 mps 752 mmHg 73%
    09:00 +11°C° 0.1 mm 6 mps 752 mmHg 71%
    10:00 +11°C° 0.1 mm 6 mps 752 mmHg 69%
    11:00 +12°C° 0.1 mm 7 mps 752 mmHg 64%
    12:00 +14°C° 0.1 mm 7 mps 751 mmHg 60%
    13:00 +15°C° 0.1 mm 8 mps 751 mmHg 55%
    14:00 +15°C° 0 mm 8 mps 751 mmHg 53%
    15:00 +16°C° 0 mm 8 mps 751 mmHg 51%
    16:00 +16°C° 0 mm 7 mps 751 mmHg 49%
    17:00 +15°C° 0 mm 7 mps 751 mmHg 54%
    18:00 +14°C° 0 mm 7 mps 751 mmHg 59%
    19:00 +12°C° 0 mm 7 mps 751 mmHg 63%
    20:00 +11°C° 0.1 mm 7 mps 751 mmHg 67%
    21:00 +11°C° 0.1 mm 7 mps 752 mmHg 71%
    22:00 +10°C° 0.1 mm 7 mps 752 mmHg 75%
    23:00 +10°C° 0.1 mm 7 mps 751 mmHg 78%
    Show more